Location: Newark
(19.4083°N, 89.7712°W)
Time: 07:12:12
(UTC+00:00)

Tiangong 2 - Pass Details

Date: 27 July 2019
Orbit: 185 x 376 km, 42.8° (Epoch: 19 July)

Event Time Altitude Azimuth Distance (km) Brightness Sun altitude
Rises 02:05:25 0° 305° (NW) 2,155 6.5 -19.5°
Reaches altitude 10° 02:07:28 10° 300° (WNW) 1,318 5.0 -20.0°
Enters shadow 02:10:01 48° 254° (WSW) 472 1.7 -20.5°
